,,Stat6,,Stat2,,Stat8,,Stat9,,Stat10,,Wind1,,Wind1,
time,status,PA1M_AVG,status,PR1M_SUM,status,RH1M_AVG,status,SR1M_AVG,status,TA1M_AVG,status,W1dAve1m,status,W1sAve1m,
2005-12-20, 00:00:00,VALID,916.125,VALID,0,VALID,99.3149,VALID,0.0679233,VALID,19.8317,VALID,137,VALID,0.488889,
2005-12-20, 00:01:00,VALID,916.135,VALID,0,VALID,99.2411,VALID,0.0509425,VALID,19.8312,VALID,139,VALID,0.433789,
2005-12-20, 00:02:00,VALID,916.14,VALID,0,VALID,99.2297,VALID,0.0169808,VALID,19.8188,VALID,130,VALID,0.660061,
2005-12-20, 00:03:00,VALID,916.13,VALID,0,VALID,99.278,VALID,0.0849042,VALID,19.8156,VALID,135,VALID,0.527158,
2005-12-20, 00:04:00,VALID,916.112,VALID,0,VALID,99.3861,VALID,0.0339617,VALID,19.8163,VALID,127,VALID,0.784201,
2005-12-20, 00:05:00,VALID,916.1,VALID,0,VALID,99.4942,VALID,0,VALID,19.8071,VALID,135,VALID,0.713778,
2005-12-20, 00:06:00,VALID,916.08,VALID,0,VALID,99.6073,VALID,-0.0169808,VALID,19.8109,VALID,132,VALID,0.842416,
2005-12-20, 00:07:00,VALID,916.055,VALID,0,VALID,99.7192,VALID,0,VALID,19.8136,VALID,131,VALID,1.07688,
2005-12-20, 00:08:00,VALID,916.061,VALID,0,VALID,99.7587,VALID,-0.0169808,VALID,19.7939,VALID,142,VALID,0.838844,
2005-12-20, 00:09:00,VALID,916.067,VALID,0,VALID,99.7904,VALID,-0.0169808,VALID,19.8101,VALID,143,VALID,0.887091,
2005-12-20, 00:10:00,VALID,916.074,VALID,0,VALID,99.8426,VALID,-0.0169808,VALID,19.8265,VALID,157,VALID,1.19695,
2005-12-20, 00:11:00,VALID,916.073,VALID,0,VALID,99.7625,VALID,0.0169808,VALID,19.8591,VALID,145,VALID,0.724015,
2005-12-20, 00:12:00,VALID,916.083,VALID,0,VALID,99.6913,VALID,0,VALID,19.8524,VALID,151,VALID,0.810826,
2005-12-20, 00:13:00,VALID,916.076,VALID,0,VALID,99.6239,VALID,0,VALID,19.8586,VALID,155,VALID,0.942472,
2005-12-20, 00:14:00,VALID,916.094,VALID,0,VALID,99.6162,VALID,-0.0169808,VALID,19.8623,VALID,153,VALID,0.972656,
2005-12-20, 00:15:00,VALID,916.114,VALID,0,VALID,99.5933,VALID,0,VALID,19.836,VALID,160,VALID,1.12046,
2005-12-20, 00:16:00,VALID,916.13,VALID,0,VALID,99.6874,VALID,0,VALID,19.8198,VALID,148,VALID,1.0625,
2005-12-20, 00:17:00,VALID,916.14,VALID,0,VALID,99.7828,VALID,-0.0169808,VALID,19.8041,VALID,150,VALID,0.893229,
2005-12-20, 00:18:00,VALID,916.143,VALID,0,VALID,99.8693,VALID,0.0169808,VALID,19.8009,VALID,157,VALID,0.828488,
2005-12-20, 00:19:00,VALID,916.143,VALID,0,VALID,99.9379,VALID,0.0169808,VALID,19.778,VALID,150,VALID,0.86843,
2005-12-20, 00:20:00,VALID,916.145,VALID,0,VALID,100,VALID,-0.0169808,VALID,19.775,VALID,162,VALID,0.7258,
2005-12-20, 00:21:00,VALID,916.137,VALID,0,VALID,99.9878,VALID,-0.0169808,VALID,19.7522,VALID,139,VALID,0.97691,
2005-12-20, 00:22:00,VALID,916.13,VALID,0,VALID,100,VALID,0,VALID,19.7355,VALID,143,VALID,0.679497,
2005-12-20, 00:23:00,VALID,916.11,VALID,0,VALID,100,VALID,0,VALID,19.7427,VALID,147,VALID,0.766927,
2005-12-20, 00:24:00,VALID,916.098,VALID,0,VALID,100,VALID,0,VALID,19.7295,VALID,143,VALID,1.01563,
2005-12-20, 00:25:00,VALID,916.084,VALID,0,VALID,100,VALID,-0.0339617,VALID,19.7169,VALID,142,VALID,0.958841,
2005-12-20, 00:26:00,VALID,916.074,VALID,0,VALID,100,VALID,0,VALID,19.7166,VALID,132,VALID,1.08899,
2005-12-20, 00:27:00,VALID,916.082,VALID,0,VALID,100,VALID,-0.0169808,VALID,19.7201,VALID,129,VALID,0.875381,
2005-12-20, 00:28:00,VALID,916.067,VALID,0,VALID,100,VALID,-0.0509425,VALID,19.7074,VALID,129,VALID,0.812314,
2005-12-20, 00:29:00,VALID,916.059,VALID,0,VALID,100,VALID,-0.0339617,VALID,19.7136,VALID,136,VALID,0.808681,
2005-12-20, 00:30:00,VALID,916.059,VALID,0,VALID,99.9977,VALID,-0.0169808,VALID,19.7069,VALID,121,VALID,0.822311,
2005-12-20, 00:31:00,VALID,916.066,VALID,0,VALID,99.9919,VALID,-0.0169808,VALID,19.7101,VALID,132,VALID,0.859003,
2005-12-20, 00:32:00,VALID,916.064,VALID,0,VALID,99.9964,VALID,-0.0509425,VALID,19.7233,VALID,130,VALID,0.849023,
2005-12-20, 00:33:00,VALID,916.049,VALID,0,VALID,99.9832,VALID,-0.0339617,VALID,19.7201,VALID,134,VALID,0.978016,
2005-12-20, 00:34:00,VALID,916.057,VALID,0,VALID,99.9672,VALID,-0.0339617,VALID,19.7325,VALID,145,VALID,0.434642,
2005-12-20, 00:35:00,VALID,916.059,VALID,0,VALID,99.9112,VALID,0,VALID,19.7522,VALID,126,VALID,0.368641,
2005-12-20, 00:36:00,VALID,916.081,VALID,0,VALID,99.8095,VALID,-0.0169808,VALID,19.7721,VALID,122,VALID,0.226736,
2005-12-20, 00:37:00,VALID,916.081,VALID,0,VALID,99.6951,VALID,-0.0339617,VALID,19.778,VALID,119,VALID,0.122713,
2005-12-20, 00:38:00,VALID,916.081,VALID,0,VALID,99.5781,VALID,-0.0169808,VALID,19.7944,VALID,119,VALID,0.00299202,
2005-12-20, 00:39:00,VALID,916.061,VALID,0,VALID,99.484,VALID,-0.0339617,VALID,19.7815,VALID,119,VALID,0.217416,
2005-12-20, 00:40:00,VALID,916.04,VALID,0,VALID,99.3772,VALID,-0.0169808,VALID,19.7947,VALID,118,VALID,0.403516,
2005-12-20, 00:41:00,VALID,916.012,VALID,0,VALID,99.1661,VALID,-0.0169808,VALID,19.7942,VALID,74,VALID,0.640234,
2005-12-20, 00:42:00,VALID,916.005,VALID,0,VALID,98.9346,VALID,-0.0509425,VALID,19.775,VALID,62,VALID,0.732701,
2005-12-20, 00:43:00,VALID,915.978,VALID,0,VALID,98.7897,VALID,0,VALID,19.7554,VALID,61,VALID,0.741461,
2005-12-20, 00:44:00,VALID,915.973,VALID,0,VALID,98.791,VALID,0,VALID,19.7459,VALID,64,VALID,0.709695,
2005-12-20, 00:45:00,VALID,915.945,VALID,0,VALID,98.9359,VALID,0,VALID,19.7325,VALID,93,VALID,0.824219,
2005-12-20, 00:46:00,VALID,915.955,VALID,0,VALID,98.9881,VALID,0,VALID,19.7231,VALID,85,VALID,0.780895,
2005-12-20, 00:47:00,VALID,915.936,VALID,0,VALID,99.0504,VALID,0,VALID,19.7134,VALID,80,VALID,0.729651,
2005-12-20, 00:48:00,VALID,915.915,VALID,0,VALID,98.9575,VALID,-0.0169808,VALID,19.6907,VALID,78,VALID,0.840588,
2005-12-20, 00:49:00,VALID,915.883,VALID,0,VALID,98.9893,VALID,0,VALID,19.6714,VALID,72,VALID,1.1005,
2005-12-20, 00:50:00,VALID,915.847,VALID,0,VALID,99.0466,VALID,0,VALID,19.6621,VALID,69,VALID,1.19289,
2005-12-20, 00:51:00,VALID,915.835,VALID,0,VALID,99.1496,VALID,0.0169808,VALID,19.6323,VALID,76,VALID,0.907452,
2005-12-20, 00:52:00,VALID,915.829,VALID,0,VALID,99.264,VALID,0,VALID,19.6199,VALID,81,VALID,0.831676,
2005-12-20, 00:53:00,VALID,915.847,VALID,0,VALID,99.3924,VALID,-0.0169808,VALID,19.5903,VALID,96,VALID,0.649479,
2005-12-20, 00:54:00,VALID,915.845,VALID,0,VALID,99.517,VALID,0,VALID,19.5774,VALID,96,VALID,0.476732,
2005-12-20, 00:55:00,VALID,915.845,VALID,0,VALID,99.5704,VALID,0,VALID,19.5711,VALID,95,VALID,0.471236,
2005-12-20, 00:56:00,VALID,915.811,VALID,0,VALID,99.5616,VALID,-0.0169808,VALID,19.5585,VALID,95,VALID,0.719295,
2005-12-20, 00:57:00,VALID,915.797,VALID,0,VALID,99.5209,VALID,0,VALID,19.5453,VALID,91,VALID,0.678597,
2005-12-20, 00:58:00,VALID,915.77,VALID,0,VALID,99.6048,VALID,0,VALID,19.5259,VALID,90,VALID,0.809896,
2005-12-20, 00:59:00,VALID,915.773,VALID,0,VALID,99.6709,VALID,0,VALID,19.5162,VALID,77,VALID,0.711496,
2005-12-20, 01:00:00,VALID,915.773,VALID,0,VALID,99.6887,VALID,-0.0169808,VALID,19.5033,VALID,90,VALID,0.73165,
2005-12-20, 01:01:00,VALID,915.779,VALID,0,VALID,99.7281,VALID,0,VALID,19.4901,VALID,93,VALID,0.91424,
2005-12-20, 01:02:00,VALID,915.779,VALID,0,VALID,99.8286,VALID,0.0169808,VALID,19.4903,VALID,103,VALID,0.704799,
2005-12-20, 01:03:00,VALID,915.791,VALID,0,VALID,99.8413,VALID,0,VALID,19.4776,VALID,112,VALID,0.431818,
2005-12-20, 01:04:00,VALID,915.778,VALID,0,VALID,99.9804,VALID,0,VALID,19.4774,VALID,113,VALID,0.414249,
2005-12-20, 01:05:00,VALID,915.761,VALID,0,VALID,99.9906,VALID,0.0169808,VALID,19.4903,VALID,123,VALID,0.441497,
2005-12-20, 01:06:00,VALID,915.747,VALID,0,VALID,99.9214,VALID,0,VALID,19.4637,VALID,98,VALID,0.461124,
2005-12-20, 01:07:00,VALID,915.735,VALID,0,VALID,99.8197,VALID,0,VALID,19.4645,VALID,78,VALID,0.571987,
2005-12-20, 01:08:00,VALID,915.736,VALID,0,VALID,99.7917,VALID,0,VALID,19.455,VALID,97,VALID,0.540153,
2005-12-20, 01:09:00,VALID,915.733,VALID,0,VALID,99.7765,VALID,-0.0339617,VALID,19.4486,VALID,77,VALID,0.782393,
2005-12-20, 01:10:00,VALID,915.722,VALID,0,VALID,99.7777,VALID,-0.0169808,VALID,19.4421,VALID,83,VALID,0.657158,
2005-12-20, 01:11:00,VALID,915.713,VALID,0,VALID,99.751,VALID,-0.0169808,VALID,19.4421,VALID,87,VALID,0.870236,
2005-12-20, 01:12:00,VALID,915.722,VALID,0,VALID,99.69,VALID,0,VALID,19.4386,VALID,81,VALID,0.577939,
2005-12-20, 01:13:00,VALID,915.737,VALID,0,VALID,99.6086,VALID,0,VALID,19.455,VALID,107,VALID,0.897135,
2005-12-20, 01:14:00,VALID,915.766,VALID,0,VALID,99.5527,VALID,-0.0169808,VALID,19.4548,VALID,108,VALID,0.870916,
2005-12-20, 01:15:00,VALID,915.762,VALID,0,VALID,99.4992,VALID,0,VALID,19.4545,VALID,108,VALID,0.79742,
2005-12-20, 01:16:00,VALID,915.765,VALID,0,VALID,99.4382,VALID,0,VALID,19.4744,VALID,130,VALID,0.712081,
2005-12-20, 01:17:00,VALID,915.76,VALID,0,VALID,99.3034,VALID,0.0169808,VALID,19.4739,VALID,122,VALID,0.774528,
2005-12-20, 01:18:00,VALID,915.738,VALID,0,VALID,99.1432,VALID,0,VALID,19.4742,VALID,101,VALID,0.872523,
2005-12-20, 01:19:00,VALID,915.726,VALID,0,VALID,99.0275,VALID,0.0339617,VALID,19.4834,VALID,102,VALID,1.02255,
2005-12-20, 01:20:00,VALID,915.721,VALID,0,VALID,98.9041,VALID,0.101885,VALID,19.4854,VALID,99,VALID,0.927507,
2005-12-20, 01:21:00,VALID,915.7,VALID,0,VALID,98.7643,VALID,0.101885,VALID,19.4953,VALID,96,VALID,0.822218,
2005-12-20, 01:22:00,VALID,915.709,VALID,0,VALID,98.6485,VALID,0.118866,VALID,19.5018,VALID,95,VALID,0.778888,
2005-12-20, 01:23:00,VALID,915.706,VALID,0,VALID,98.5621,VALID,0.101885,VALID,19.5087,VALID,99,VALID,0.786882,
2005-12-20, 01:24:00,VALID,915.697,VALID,0,VALID,98.4654,VALID,0.0849042,VALID,19.4986,VALID,114,VALID,0.925686,
2005-12-20, 01:25:00,VALID,915.707,VALID,0,VALID,98.3764,VALID,0.0849042,VALID,19.4958,VALID,102,VALID,0.756214,
2005-12-20, 01:26:00,VALID,915.721,VALID,0,VALID,98.3243,VALID,0.101885,VALID,19.512,VALID,88,VALID,0.632999,
2005-12-20, 01:27:00,VALID,915.716,VALID,0,VALID,98.2709,VALID,0.0679233,VALID,19.5217,VALID,89,VALID,0.708079,
2005-12-20, 01:28:00,VALID,915.701,VALID,0,VALID,98.2098,VALID,0.101885,VALID,19.5214,VALID,67,VALID,0.715278,
2005-12-20, 01:29:00,VALID,915.685,VALID,0,VALID,98.0572,VALID,0.0849042,VALID,19.5381,VALID,56,VALID,0.906068,
2005-12-20, 01:30:00,VALID,915.681,VALID,0,VALID,98.0331,VALID,0.0679233,VALID,19.5247,VALID,57,VALID,0.831759,
2005-12-20, 01:31:00,VALID,915.682,VALID,0,VALID,98.0102,VALID,0.0679233,VALID,19.515,VALID,42,VALID,0.84266,
2005-12-20, 01:32:00,VALID,915.662,VALID,0,VALID,98.1297,VALID,0.0849042,VALID,19.5122,VALID,49,VALID,0.690662,
2005-12-20, 01:33:00,VALID,915.656,VALID,0,VALID,98.1119,VALID,0.0679233,VALID,19.499,VALID,68,VALID,0.567708,
2005-12-20, 01:34:00,VALID,915.643,VALID,0,VALID,98.1755,VALID,0.101885,VALID,19.4829,VALID,82,VALID,0.824033,
2005-12-20, 01:35:00,VALID,915.651,VALID,0,VALID,98.22,VALID,0.0849042,VALID,19.4826,VALID,94,VALID,0.67133,
2005-12-20, 01:36:00,VALID,915.663,VALID,0,VALID,98.2836,VALID,0.101885,VALID,19.4767,VALID,94,VALID,0.62221,
2005-12-20, 01:37:00,VALID,915.656,VALID,0,VALID,98.3624,VALID,0.0849042,VALID,19.4702,VALID,94,VALID,0.484766,
2005-12-20, 01:38:00,VALID,915.67,VALID,0,VALID,98.4502,VALID,0.101885,VALID,19.4501,VALID,94,VALID,0.377907,
2005-12-20, 01:39:00,VALID,915.65,VALID,0,VALID,98.5137,VALID,0.101885,VALID,19.4473,VALID,94,VALID,0.626635,
2005-12-20, 01:40:00,VALID,915.625,VALID,0,VALID,98.6104,VALID,0.118866,VALID,19.4275,VALID,95,VALID,0.680707,
2005-12-20, 01:41:00,VALID,915.617,VALID,0,VALID,98.7579,VALID,0.0849042,VALID,19.4245,VALID,114,VALID,0.708212,
2005-12-20, 01:42:00,VALID,915.611,VALID,0,VALID,98.8482,VALID,0.101885,VALID,19.4205,VALID,113,VALID,0.835088,
2005-12-20, 01:43:00,VALID,915.614,VALID,0,VALID,98.9499,VALID,0.101885,VALID,19.418,VALID,110,VALID,0.525,
2005-12-20, 01:44:00,VALID,915.605,VALID,0,VALID,98.8762,VALID,0.0679233,VALID,19.4217,VALID,113,VALID,0.42207,
2005-12-20, 01:45:00,VALID,915.605,VALID,0,VALID,98.8965,VALID,0.0679233,VALID,19.4212,VALID,133,VALID,0.850991,
2005-12-20, 01:46:00,VALID,915.594,VALID,0,VALID,98.8774,VALID,0.0679233,VALID,19.415,VALID,137,VALID,0.662695,
2005-12-20, 01:47:00,VALID,915.579,VALID,0,VALID,98.8075,VALID,0.0339617,VALID,19.4153,VALID,138,VALID,0.31907,
2005-12-20, 01:48:00,VALID,915.568,VALID,0,VALID,98.7973,VALID,0.0849042,VALID,19.4312,VALID,129,VALID,0.253997,
2005-12-20, 01:49:00,VALID,915.557,VALID,0,VALID,98.7007,VALID,0.0849042,VALID,19.4309,VALID,137,VALID,0.360938,
2005-12-20, 01:50:00,VALID,915.554,VALID,0,VALID,98.5315,VALID,0.0679233,VALID,19.4476,VALID,131,VALID,0.435138,
2005-12-20, 01:51:00,VALID,915.539,VALID,0,VALID,98.3217,VALID,0.0509425,VALID,19.4344,VALID,140,VALID,0.353198,
2005-12-20, 01:52:00,VALID,915.535,VALID,0,VALID,98.2251,VALID,0.0169808,VALID,19.4376,VALID,143,VALID,0.564596,
2005-12-20, 01:53:00,VALID,915.537,VALID,0,VALID,98.1946,VALID,0.101885,VALID,19.4605,VALID,147,VALID,0.540923,
2005-12-20, 01:54:00,VALID,915.54,VALID,0,VALID,98.1717,VALID,0.0679233,VALID,19.4665,VALID,147,VALID,0.423874,
2005-12-20, 01:55:00,VALID,915.55,VALID,0,VALID,98.173,VALID,0.0849042,VALID,19.4859,VALID,149,VALID,0.615039,
2005-12-20, 01:56:00,VALID,915.557,VALID,0,VALID,98.2391,VALID,0.0339617,VALID,19.4824,VALID,155,VALID,0.847656,
2005-12-20, 01:57:00,VALID,915.56,VALID,0,VALID,98.3383,VALID,0.0849042,VALID,19.4894,VALID,148,VALID,0.845274,
2005-12-20, 01:58:00,VALID,915.545,VALID,0,VALID,98.5125,VALID,0.101885,VALID,19.4956,VALID,142,VALID,1.04364,
2005-12-20, 01:59:00,VALID,915.536,VALID,0,VALID,98.6384,VALID,0.101885,VALID,19.4921,VALID,146,VALID,0.951126,
2005-12-20, 02:00:00,VALID,915.519,VALID,0,VALID,98.707,VALID,0.0679233,VALID,19.5055,VALID,135,VALID,0.945503,
2005-12-20, 02:01:00,VALID,915.512,VALID,0,VALID,98.7541,VALID,0.0849042,VALID,19.4986,VALID,138,VALID,0.802778,
2005-12-20, 02:02:00,VALID,915.518,VALID,0,VALID,98.7732,VALID,0.101885,VALID,19.4889,VALID,147,VALID,0.344531,
2005-12-20, 02:03:00,VALID,915.517,VALID,0,VALID,98.8342,VALID,0.0849042,VALID,19.4861,VALID,147,VALID,0.242188,
2005-12-20, 02:04:00,VALID,915.512,VALID,0,VALID,98.894,VALID,0.0509425,VALID,19.4931,VALID,148,VALID,0.146076,
2005-12-20, 02:05:00,VALID,915.499,VALID,0,VALID,98.9957,VALID,0,VALID,19.4896,VALID,149,VALID,0.608333,
2005-12-20, 02:06:00,VALID,915.508,VALID,0,VALID,99.1063,VALID,0.0679233,VALID,19.4896,VALID,153,VALID,0.5712,
2005-12-20, 02:07:00,VALID,915.507,VALID,0,VALID,99.1979,VALID,0.0679233,VALID,19.4859,VALID,153,VALID,0.501065,
2005-12-20, 02:08:00,VALID,915.516,VALID,0,VALID,99.2437,VALID,0.0339617,VALID,19.4831,VALID,140,VALID,0.862351,
2005-12-20, 02:09:00,VALID,915.521,VALID,0,VALID,99.3505,VALID,0.0509425,VALID,19.4801,VALID,140,VALID,0.807958,
2005-12-20, 02:10:00,VALID,915.525,VALID,0,VALID,99.4624,VALID,0.0509425,VALID,19.467,VALID,137,VALID,0.806176,
2005-12-20, 02:11:00,VALID,915.521,VALID,0,VALID,99.5094,VALID,0,VALID,19.4608,VALID,140,VALID,0.574128,
2005-12-20, 02:12:00,VALID,915.531,VALID,0,VALID,99.5234,VALID,0.0849042,VALID,19.4473,VALID,145,VALID,0.819111,
2005-12-20, 02:13:00,VALID,915.533,VALID,0,VALID,99.6277,VALID,0.0849042,VALID,19.4207,VALID,138,VALID,0.964472,
2005-12-20, 02:14:00,VALID,915.535,VALID,0,VALID,99.6976,VALID,0.101885,VALID,19.4215,VALID,125,VALID,0.455729,
2005-12-20, 02:15:00,VALID,915.529,VALID,0,VALID,99.7116,VALID,0.0509425,VALID,19.421,VALID,125,VALID,0.183685,
2005-12-20, 02:16:00,VALID,915.513,VALID,0,VALID,99.6417,VALID,0.0679233,VALID,19.4215,VALID,125,VALID,0.230755,
2005-12-20, 02:17:00,VALID,915.51,VALID,0,VALID,99.5463,VALID,0.0679233,VALID,19.4215,VALID,124,VALID,0.262536,
2005-12-20, 02:18:00,VALID,915.503,VALID,0,VALID,99.4738,VALID,0.0509425,VALID,19.3989,VALID,101,VALID,0.523801,
2005-12-20, 02:19:00,VALID,915.491,VALID,0,VALID,99.5158,VALID,0.0169808,VALID,19.3889,VALID,84,VALID,0.60026,
2005-12-20, 02:20:00,VALID,915.482,VALID,0,VALID,99.5679,VALID,0.0339617,VALID,19.4148,VALID,84,VALID,0.635671,
2005-12-20, 02:21:00,VALID,915.475,VALID,0,VALID,99.5043,VALID,0.0849042,VALID,19.4217,VALID,83,VALID,0.71733,
2005-12-20, 02:22:00,VALID,915.484,VALID,0,VALID,99.4776,VALID,0.0509425,VALID,19.4217,VALID,84,VALID,0.736133,
2005-12-20, 02:23:00,VALID,915.478,VALID,0,VALID,99.381,VALID,0.0509425,VALID,19.4309,VALID,79,VALID,0.829427,
2005-12-20, 02:24:00,VALID,915.465,VALID,0,VALID,99.189,VALID,0.0849042,VALID,19.4342,VALID,74,VALID,0.943979,
2005-12-20, 02:25:00,VALID,915.459,VALID,0,VALID,99.044,VALID,0.101885,VALID,19.4277,VALID,67,VALID,0.767531,
2005-12-20, 02:26:00,VALID,915.437,VALID,0,VALID,98.9067,VALID,0.0849042,VALID,19.3951,VALID,35,VALID,0.949396,
2005-12-20, 02:27:00,VALID,915.438,VALID,0,VALID,98.8215,VALID,0.101885,VALID,19.3598,VALID,30,VALID,1.00746,
2005-12-20, 02:28:00,VALID,915.416,VALID,0,VALID,98.8406,VALID,0.0849042,VALID,19.3046,VALID,37,VALID,0.751272,
2005-12-20, 02:29:00,VALID,915.397,VALID,0,VALID,98.9397,VALID,0.0509425,VALID,19.2626,VALID,42,VALID,0.928234,
2005-12-20, 02:30:00,VALID,915.376,VALID,0,VALID,99.0249,VALID,0.101885,VALID,19.237,VALID,42,VALID,0.946456,
2005-12-20, 02:31:00,VALID,915.352,VALID,0,VALID,99.1203,VALID,0.0849042,VALID,19.2206,VALID,42,VALID,0.809837,
2005-12-20, 02:32:00,VALID,915.349,VALID,0,VALID,99.0822,VALID,0.0849042,VALID,19.2208,VALID,42,VALID,0.823847,
2005-12-20, 02:33:00,VALID,915.351,VALID,0,VALID,98.9575,VALID,0.0509425,VALID,19.2116,VALID,42,VALID,0.679332,
2005-12-20, 02:34:00,VALID,915.331,VALID,0,VALID,98.8711,VALID,0.0679233,VALID,19.2047,VALID,42,VALID,0.497093,
2005-12-20, 02:35:00,VALID,915.342,VALID,0,VALID,98.8571,VALID,0.0849042,VALID,19.1848,VALID,42,VALID,0.312872,
2005-12-20, 02:36:00,VALID,915.317,VALID,0,VALID,98.9753,VALID,0.101885,VALID,19.1888,VALID,42,VALID,0.350836,
2005-12-20, 02:37:00,VALID,915.311,VALID,0,VALID,98.9728,VALID,0.0849042,VALID,19.1758,VALID,42,VALID,0.489139,
2005-12-20, 02:38:00,VALID,915.312,VALID,0,VALID,99.0071,VALID,0.101885,VALID,19.1694,VALID,42,VALID,0.517401,
2005-12-20, 02:39:00,VALID,915.292,VALID,0,VALID,99.0618,VALID,0.0849042,VALID,19.1562,VALID,42,VALID,0.526972,
2005-12-20, 02:40:00,VALID,915.293,VALID,0,VALID,99.1127,VALID,0.101885,VALID,19.146,VALID,42,VALID,0.601926,
2005-12-20, 02:41:00,VALID,915.285,VALID,0,VALID,99.1076,VALID,0.101885,VALID,19.1657,VALID,42,VALID,0.498224,
2005-12-20, 02:42:00,VALID,915.3,VALID,0,VALID,99.058,VALID,0.101885,VALID,19.1826,VALID,42,VALID,0.210938,
2005-12-20, 02:43:00,VALID,915.303,VALID,0,VALID,98.9792,VALID,0.0849042,VALID,19.1821,VALID,42,VALID,0.330611,
2005-12-20, 02:44:00,VALID,915.294,VALID,0,VALID,99.0555,VALID,0.0849042,VALID,19.1888,VALID,42,VALID,0.492188,
2005-12-20, 02:45:00,VALID,915.298,VALID,0,VALID,99.1101,VALID,0.0849042,VALID,19.2052,VALID,42,VALID,0.389482,
2005-12-20, 02:46:00,VALID,915.294,VALID,0,VALID,99.1241,VALID,0.0849042,VALID,19.2112,VALID,42,VALID,0.35191,
2005-12-20, 02:47:00,VALID,915.282,VALID,0,VALID,99.208,VALID,0.0679233,VALID,19.231,VALID,60,VALID,0.521839,
2005-12-20, 02:48:00,VALID,915.256,VALID,0,VALID,99.311,VALID,0.0509425,VALID,19.2435,VALID,88,VALID,0.569222,
2005-12-20, 02:49:00,VALID,915.239,VALID,0,VALID,99.3009,VALID,0.0339617,VALID,19.244,VALID,87,VALID,0.45653,
2005-12-20, 02:50:00,VALID,915.227,VALID,0,VALID,99.3721,VALID,0.0849042,VALID,19.2509,VALID,87,VALID,0.445313,
2005-12-20, 02:51:00,VALID,915.203,VALID,0,VALID,99.4675,VALID,0.0849042,VALID,19.2407,VALID,88,VALID,0.210565,
2005-12-20, 02:52:00,VALID,915.188,VALID,0,VALID,99.6162,VALID,0.0509425,VALID,19.2211,VALID,103,VALID,0.293527,
2005-12-20, 02:53:00,VALID,915.171,VALID,0,VALID,99.6709,VALID,0.0679233,VALID,19.2343,VALID,109,VALID,0.260901,
2005-12-20, 02:54:00,VALID,915.148,VALID,0,VALID,99.6836,VALID,0.0509425,VALID,19.2276,VALID,109,VALID,0.0725446,
2005-12-20, 02:55:00,VALID,915.133,VALID,0,VALID,99.428,VALID,0.0679233,VALID,19.2181,VALID,109,VALID,0.0874619,
2005-12-20, 02:56:00,VALID,915.121,VALID,0,VALID,99.4522,VALID,0.0509425,VALID,19.1987,VALID,109,VALID,0.461128,
2005-12-20, 02:57:00,VALID,915.102,VALID,0,VALID,99.6315,VALID,0.0679233,VALID,19.1918,VALID,109,VALID,0.320313,
2005-12-20, 02:58:00,VALID,915.065,VALID,0,VALID,99.6595,VALID,0.101885,VALID,19.2052,VALID,109,VALID,0.375,
2005-12-20, 02:59:00,VALID,915.059,VALID,0,VALID,99.601,VALID,0.0509425,VALID,19.2112,VALID,109,VALID,0.438988,
2005-12-20, 03:00:00,VALID,915.035,VALID,0,VALID,99.5069,VALID,0.0679233,VALID,19.231,VALID,109,VALID,0.403409,
2005-12-20, 03:01:00,VALID,915.032,VALID,0,VALID,99.4026,VALID,0.0679233,VALID,19.241,VALID,109,VALID,0.201265,
2005-12-20, 03:02:00,VALID,915.019,VALID,0,VALID,99.2297,VALID,0.0849042,VALID,19.2377,VALID,109,VALID,0.387429,
2005-12-20, 03:03:00,VALID,915.006,VALID,0,VALID,99.0771,VALID,0.0169808,VALID,19.234,VALID,109,VALID,0.308594,
2005-12-20, 03:04:00,VALID,915.013,VALID,0,VALID,98.983,VALID,0.0509425,VALID,19.2218,VALID,109,VALID,0.255149,
2005-12-20, 03:05:00,VALID,915,VALID,0,VALID,99.0466,VALID,-0.0169808,VALID,19.2196,VALID,112,VALID,0.422053,
2005-12-20, 03:06:00,VALID,915.013,VALID,0,VALID,99.1445,VALID,-0.0339617,VALID,19.2032,VALID,112,VALID,0.541606,
2005-12-20, 03:07:00,VALID,915.026,VALID,0,VALID,99.1674,VALID,0,VALID,19.2032,VALID,136,VALID,0.657617,
2005-12-20, 03:08:00,VALID,915.025,VALID,0,VALID,99.1852,VALID,-0.0169808,VALID,19.2002,VALID,137,VALID,0.437314,
2005-12-20, 03:09:00,VALID,915.032,VALID,0,VALID,99.119,VALID,-0.0169808,VALID,19.2002,VALID,137,VALID,0.490007,
2005-12-20, 03:10:00,VALID,915.027,VALID,0,VALID,99.0148,VALID,-0.0169808,VALID,19.2039,VALID,137,VALID,0.452398,
2005-12-20, 03:11:00,VALID,914.999,VALID,0,VALID,99.0593,VALID,-0.0169808,VALID,19.1939,VALID,137,VALID,0.398074,
2005-12-20, 03:12:00,VALID,914.995,VALID,0,VALID,99.0084,VALID,-0.0339617,VALID,19.1905,VALID,137,VALID,0.396434,
2005-12-20, 03:13:00,VALID,915.001,VALID,0,VALID,99.0491,VALID,-0.0169808,VALID,19.1972,VALID,137,VALID,0.177269,
2005-12-20, 03:14:00,VALID,914.998,VALID,0,VALID,99.0402,VALID,0,VALID,19.1937,VALID,137,VALID,0.218387,
2005-12-20, 03:15:00,VALID,915,VALID,0,VALID,99.0733,VALID,-0.0169808,VALID,19.1875,VALID,137,VALID,0.241982,
2005-12-20, 03:16:00,VALID,914.992,VALID,0,VALID,99.1635,VALID,0,VALID,19.1713,VALID,137,VALID,0.34392,
2005-12-20, 03:17:00,VALID,914.989,VALID,0,VALID,99.2869,VALID,0,VALID,19.1577,VALID,147,VALID,0.573933,
2005-12-20, 03:18:00,VALID,914.986,VALID,0,VALID,99.4293,VALID,0.0169808,VALID,19.1674,VALID,157,VALID,0.746094,
2005-12-20, 03:19:00,VALID,914.984,VALID,0,VALID,99.5336,VALID,-0.0169808,VALID,19.1644,VALID,157,VALID,0.743862,
2005-12-20, 03:20:00,VALID,914.984,VALID,0,VALID,99.5844,VALID,0,VALID,19.1614,VALID,157,VALID,0.811047,
2005-12-20, 03:21:00,VALID,914.965,VALID,0,VALID,99.5628,VALID,0.0339617,VALID,19.1484,VALID,157,VALID,0.631882,
2005-12-20, 03:22:00,VALID,914.952,VALID,0,VALID,99.5603,VALID,0,VALID,19.1392,VALID,148,VALID,0.83194,
2005-12-20, 03:23:00,VALID,914.942,VALID,0,VALID,99.6162,VALID,-0.0169808,VALID,19.1228,VALID,132,VALID,0.829687,
2005-12-20, 03:24:00,VALID,914.928,VALID,0,VALID,99.7358,VALID,0,VALID,19.0895,VALID,122,VALID,0.495593,
2005-12-20, 03:25:00,VALID,914.913,VALID,0,VALID,99.7523,VALID,0.0679233,VALID,19.0699,VALID,115,VALID,0.389672,
2005-12-20, 03:26:00,VALID,914.889,VALID,0,VALID,99.7777,VALID,0.0849042,VALID,19.0438,VALID,109,VALID,0.481179,
2005-12-20, 03:27:00,VALID,914.873,VALID,0,VALID,99.9011,VALID,0.0679233,VALID,19.0244,VALID,98,VALID,0.839753,
2005-12-20, 03:28:00,VALID,914.852,VALID,0,VALID,99.9868,VALID,0.0849042,VALID,19.0085,VALID,107,VALID,0.627907,
2005-12-20, 03:29:00,VALID,914.836,VALID,0,VALID,100,VALID,0.0849042,VALID,18.9658,VALID,114,VALID,0.424592,
2005-12-20, 03:30:00,VALID,914.818,VALID,0,VALID,100,VALID,0.0849042,VALID,18.9792,VALID,106,VALID,0.831861,
2005-12-20, 03:31:00,VALID,914.81,VALID,0,VALID,100,VALID,0.101885,VALID,18.9593,VALID,105,VALID,0.844122,
2005-12-20, 03:32:00,VALID,914.797,VALID,0,VALID,100,VALID,0.101885,VALID,18.9501,VALID,105,VALID,0.512305,
2005-12-20, 03:33:00,VALID,914.782,VALID,0,VALID,100,VALID,0.101885,VALID,18.9307,VALID,105,VALID,0.485102,
2005-12-20, 03:34:00,VALID,914.76,VALID,0,VALID,100,VALID,0.0339617,VALID,18.9123,VALID,105,VALID,0.598028,
2005-12-20, 03:35:00,VALID,914.741,VALID,0,VALID,100,VALID,-0.0169808,VALID,18.8961,VALID,119,VALID,0.731707,